Regional Weather Roundup
Issued by NWS

Home | Current Version | Previous Version | Text Only | Print | Product List | Glossary On
Versions: 1 2 3 4 5 6 7 8 9 10 11 12 13 14 15 16 17 18 19 20 21 22 23 24 25 26 27 28 29 30 31 32 33 34 35 36 37 38 39 40 41 42 43 44 45 46 47 48 49 50
000
ASUS43 KTOP 111108
RWRKS

WEATHER ROUNDUP FOR KANSAS
NATIONAL WEATHER SERVICE GOODLAND KS
500 AM CST SUN DEC 11 2016

NOTE:  "FAIR" INDICATES FEW OR NO CLOUDS BELOW 12,000 FEET WITH NO
SIGNIFICANT WEATHER AND/OR OBSTRUCTIONS TO VISIBILITY.

KSZ001>006-013>018-027>032-041>047-111200-
NORTHWEST KANSAS

CITY           SKY/WX    TMP DP  RH WIND       PRES   REMARKS
GOODLAND       CLOUDY    36  28  73 N22G30    29.74R WCI  25
HAYS           CLOUDY    25  24  96 NW7       29.68R
HILL CITY      CLOUDY    23  20  88 N3        29.69R
RUSSELL        CLOUDY    29  27  92 CALM      29.65R
$$

KSZ061>065-074>080-084>089-111200-
SOUTHWEST KANSAS

CITY           SKY/WX    TMP DP  RH WIND       PRES   REMARKS
DODGE CITY     CLOUDY    28  26  92 NW10      29.65R WCI  19
ELKHART          N/A     34  17  50 N6          N/A
GARDEN CITY    CLOUDY    28  24  85 NW14      29.66S WCI  17
GREAT BEND     CLOUDY    30  28  92 SE5       29.66R
LIBERAL        CLOUDY    28  19  69 NW5       29.68R
PRATT          CLOUDY    35  35  97 S7        29.65S
$$

KSZ066>073-081>083-090>101-111200-
SOUTHEAST KANSAS

CITY           SKY/WX    TMP DP  RH WIND       PRES   REMARKS
CHANUTE        CLOUDY    46  34  62 S22G29    29.77F
COFFEYVILLE    CLOUDY    47  35  63 S16G28    29.80F
HUTCHINSON     CLOUDY    45  41  86 S12       29.66F
MEDICINE LODGE   N/A     42  40  92 S9        29.65F
NEWTON         CLOUDY    46  42  86 S17       29.67F
PARSONS        CLOUDY    47  35  63 S14G29    29.81F
WICHITA INTL   CLOUDY    49  44  83 S16       29.66F
WICHITA JABRA  CLOUDY    48  44  86 S16G31    29.67F
WICHITA MCCONL CLOUDY    49  44  83 SW18      29.67F
WINFIELD       CLOUDY    48  42  80 S17       29.72F
$$

KSZ007>012-019>026-033>040-048>060-102>105-111200-
NORTHEAST KANSAS

CITY           SKY/WX    TMP DP  RH WIND       PRES   REMARKS
CONCORDIA      CLOUDY    33  29  85 CALM      29.71R
EMPORIA        CLOUDY    44  36  73 S15G24    29.72F
LAWRENCE       CLOUDY    44  33  65 SE12      29.78F
MANHATTAN      CLOUDY    42  36  79 CALM      29.70F
MARYSVILLE     CLOUDY    36  30  80 S5        29.72F
OLATHE IND     CLOUDY    44  31  60 S15G23    29.79F
OLATHE EXE     CLOUDY    41  30  65 S9        29.79F
SALINA         CLOUDY    42  38  85 S3        29.69F
TOPEKA BILLARD CLOUDY    43  34  70 SE6       29.76F
TOPEKA FORBES  CLOUDY    44  34  67 S10       29.75F
$$



USA.gov is the U.S. government's official web portal to all federal, state and local government web resources and services.